Regional Weather Roundup
Issued by NWS

Home | Current Version | Previous Version | Graphics & Text | Print | Product List | Glossary On
Versions: 1 2 3 4 5 6 7 8 9 10 11 12 13 14 15 16 17 18 19 20 21 22 23 24 25 26 27 28 29 30 31 32 33 34 35 36 37 38 39 40 41 42 43 44 45 46 47 48 49 50
000
ASUS43 KDMX 171201
RWRIA

WEATHER ROUNDUP FOR IOWA
NATIONAL WEATHER SERVICE DES MOINES IA
600 AM CST SUN DEC 17 2017

NOTE: "FAIR" INDICATES FEW OR NO CLOUDS BELOW 12,000 FEET WITH NO
SIGNIFICANT WEATHER AND/OR OBSTRUCTIONS TO VISIBILITY.

* - THESE STATIONS ARE NOT NWS STATIONS...THUS NOT UNDER NWS
QUALITY CONTROL.  THEY ALSO DO NOT REPORT WEATHER SUCH
AS PRECIPITATION OR FOG.

IAZ001>003-012>014-020>022-031>034-043>046-171300-
   NORTHWEST IOWA

CITY           SKY/WX    TMP DP  RH WIND       PRES   REMARKS
CARROLL *      CLOUDY    25  23  93 N10       29.99F WCI  15
CHEROKEE *     CLOUDY    27  27 100 NE6       30.03S FOG     WCI  21
LE MARS *      CLOUDY    27  27 100 N9        30.06R WCI  17
ORANGE CITY *  CLOUDY    27  27 100 NE3       30.04R FOG
SHELDON *      FOG       25  25 100 NE8       30.03R VSB 1   WCI  16
SIOUX CITY     MOCLDY    25  23  92 E5        30.05S WCI  19
6HR MIN TEMP:  23; 6HR MAX TEMP:  31;

SPENCER        FOG       26  25  96 NE10      30.05R VSB 3/4 WCI  16
6HR MIN TEMP:  26; 6HR MAX TEMP:  27;

STORM LAKE *   FOG       27  27 100 NE21      30.00S VSB 1/4 WCI  13
$$

IAZ055>058-069>071-079>083-090>094-171300-
   SOUTHWEST IOWA

CITY           SKY/WX    TMP DP  RH WIND       PRES   REMARKS
ATLANTIC *     CLOUDY    30  27  86 N10       29.96S WCI  21
AUDUBON *      CLOUDY    27  23  86 N6        29.97S WCI  20
CLARINDA *     CLOUDY    34  28  80 CALM        N/A
COUNCIL BLFS * CLOUDY    30  30 100 N13       29.95F WCI  20
CRESTON *      CLOUDY    30  27  86 NE8       29.95R WCI  23
HARLAN  *      MOCLDY    28  27  93 N9        30.00S WCI  20
LAMONI         CLOUDY    39  26  59 S5        29.95R
6HR MIN TEMP:  34; 6HR MAX TEMP:  41;

RED OAK *      CLOUDY    32  28  86 NE7       29.95S WCI  26
SHENANDOAH *   CLOUDY    34  28  80 CALM      29.97R
$$

IAZ047>049-059>061-072>074-084-171300-
   CENTRAL IOWA

CITY           SKY/WX    TMP DP  RH WIND       PRES   REMARKS
AMES           CLOUDY    28  25  88 NE7       29.98F WCI  21
6HR MIN TEMP:  27; 6HR MAX TEMP:  29;

ANKENY *       MOCLDY    28  25  86 NE5       29.97F WCI  23
BOONE *        CLOUDY    27  25  93 NE9       29.96F WCI  17
CHARITON *     CLOUDY    32  27  80 CALM      29.95R
DES MOINES     CLOUDY    31  24  75 NE7       29.96F WCI  24
6HR MIN TEMP:  31; 6HR MAX TEMP:  36;

GRINNELL*      CLOUDY    29  26  86 E10       29.97F WCI  20
KNOXVILLE *    CLOUDY    30  25  80 E6        29.94S WCI  24
MARSHALLTOWN   CLOUDY    28  26  92 NE7       29.98F WCI  21
6HR MIN TEMP:  26; 6HR MAX TEMP:  30;

NEWTON *       MOCLDY    28  25  86 NE9       29.96F WCI  20
PELLA *        CLOUDY    31  25  78 E3        29.97S
$$

IAZ004>006-015-016-023>025-035-036-171300-
   NORTH CENTRAL IOWA

CITY           SKY/WX    TMP DP  RH WIND       PRES   REMARKS
ALGONA *       CLOUDY    27  27 100 N12       30.03S WCI  16
CLARION *      FOG       25  25 100 NE10      30.02S VSB 1/2 WCI  15
ESTHERVILLE    CLOUDY    24  24 100 NE9       30.04R FOG     WCI  14
6HR MIN TEMP:  23; 6HR MAX TEMP:  26;

FORT DODGE *   CLOUDY    22  20  92 N8        30.01F WCI  12
MASON CITY     FOG       26  25  96 NE7       30.05S VSB 1/2 WCI  18
6HR MIN TEMP:  19; 6HR MAX TEMP:  26;

FOREST CITY *  CLOUDY    23  23 100 NE3       30.04S FOG
WEBSTER CITY * PTCLDY    21  19  93 N7        29.98F WCI  13
IOWA FALLS *   CLOUDY    27  26  95 NE9       30.02S FOG     WCI  18
$$

IAZ007>011-017>019-026>030-037>042-050>054-066-171300-
   NORTHEAST IOWA

CITY           SKY/WX    TMP DP  RH WIND       PRES   REMARKS
CEDAR RAPIDS   CLOUDY    30  27  88 E10       29.98F FOG     WCI  21
6HR MIN TEMP:  29; 6HR MAX TEMP:  31;

CHARLES CITY * CLOUDY    28  28 100 E8        30.05R FOG     WCI  20
CLINTON *      CLOUDY    29  28  96 E10       30.03F FOG     WCI  20
DECORAH *      CLOUDY    28  28 100 E7        30.05R FOG     WCI  21
DUBUQUE        CLOUDY    30  29  96 NE8       30.02F FOG     WCI  22
6HR MIN TEMP:  29; 6HR MAX TEMP:  30;

MONTICELLO *   PTCLDY    30  28  93 NE8       30.02F FOG     WCI  23
OELWEIN *      CLOUDY    30  30 100 E8G15     30.03S FOG     WCI  23
WATERLOO       CLOUDY    29  27  92 NE8       30.03S FOG     WCI  21
6HR MIN TEMP:  22; 6HR MAX TEMP:  29;

$$

IAZ064-065-067-068-078-171300-
   EAST CENTRAL IOWA

CITY           SKY/WX    TMP DP  RH WIND       PRES   REMARKS
DAVENPORT      CLOUDY    30  27  88 E10       30.03F WCI  21
6HR MIN TEMP:  29; 6HR MAX TEMP:  31;

IOWA CITY      CLOUDY    31  27  85 NE5       30.01F WCI  26
6HR MIN TEMP:  27; 6HR MAX TEMP:  34;

MT. PLEASANT * CLOUDY    32  25  77 E5        29.98S WCI  27
MUSCATINE *    CLOUDY    30  27  86 NE5       30.01S WCI  25
QUAD CITIES    CLOUDY    31  27  85 E9        30.00F WCI  23
6HR MIN TEMP:  24; 6HR MAX TEMP:  31;

$$

IAZ062-063-075>077-085>089-095>099-171300-
   SOUTHEAST IOWA

CITY           SKY/WX    TMP DP  RH WIND       PRES   REMARKS
BURLINGTON     CLOUDY    34  29  82 CALM      29.99R
6HR MIN TEMP:  33; 6HR MAX TEMP:  38;

FAIRFIELD *    CLOUDY    30  25  80 E6        29.96S WCI  24
FORT MADISON * CLOUDY    41  28  60 S5        30.00R
KEOKUK *       CLOUDY    43  27  52 MISG      29.99R
OSKALOOSA *      N/A     30  25  82 E8        29.97R WCI  22
OTTUMWA        CLOUDY    31  24  75 E7        29.96S WCI  24
6HR MIN TEMP:  30; 6HR MAX TEMP:  36;

WASHINGTON *   CLOUDY    30  28  93 E9        29.99S WCI  22
$$

ABBREVIATIONS USED IN REMARKS
   TC - TEMPERATURES IN CELSIUS
  WCI - WIND CHILL INDEX
   HX - HEAT INDEX
  VSB - VISIBILITY
$$





USA.gov is the U.S. government's official web portal to all federal, state and local government web resources and services.